Location: Ford County Road and Bridge Department
(37.7686°N, 99.9762°W)
Time: 17:53:37
(UTC+00:00)

Cosmos 1939 Rocket - Pass Details

Date: 18 January 2020
Orbit: 534 x 583 km, 97.4° (Epoch: 22 February)

Event Time Altitude Azimuth Distance (km) Brightness Sun altitude
Rises 00:58:30 0° 150° (SSE) 2,670 6.2 -14.1°
Reaches altitude 10° 01:00:41 10° 142° (SE) 1,788 5.2 -14.5°
Maximum altitude 01:04:16 38° 73° (ENE) 829 3.2 -15.2°
Drops below altitude 10° 01:07:56 10° 5° (N) 1,818 5.3 -15.9°
Sets 01:10:10 0° 357° (N) 2,723 6.3 -16.3°
